Hauptseite
METAR-TAF:

METAR-TAF

Flughäfen :

La Chaux-de-Fonds, Schweiz

Flugplatz Les Eplatures

Breite: 47-05-03N, Länge: 006-47-37E, Höhe: 1027 m

Beobachtung

Neuester Wetterbericht von vor 13 Minuten, um 22:50 UTC
Windstille
Temperatur 10°C
Luftfeuchtigkeit 82%
Luftdruck 1021 hPa
Sichtweite 10 km oder mehr
keine Wolken unter 1500 m und keine Kumulonimbus oder Gewitterwolken

METAR: LSGC 212250Z AUTO 00000KT CAVOK 10/07 Q1021

Zeit: 01:03 (23:03 UTC)

Prognose

Neuester Wetterbericht von vor 8 Stunden und 38 Minuten, um 14:25 UTC
Gültige Prognose vom 21 um 15 UTC bis 21 um 24 UTC
Wind 3 kt aus unterschiedlichen Richtungen
Sichtweite 10 km oder mehr
keine Wolken unter 1500 m und keine Kumulonimbus oder Gewitterwolken

TAF: LSGC 211425Z 2115/2124 VRB03KT CAVOK

Wetterbeobachtungen und Prognosen von mehr als 4000 Flughäfen (METAR und TAF Bericht).

Die verfügbaren Stationen werden durch gelbe und rote Markierungen auf der Karte dargestellt.

Führen Sie die Maus auf sie, um den Namen der Station zu sehen.

Darauf klicken, um die Beobachtung von Wetterbeobachtungen und Prognosen zu sehen.

Um die Karte zu ändern : klicken Sie auf den grünen Tasten mit einem schwarzen Kreuz Zum Vergrößern, auf den grünen Button mit einem Gedankenstrich zu verkleinern, oder auf die grünen Pfeile für benachbarte Karten.


METAR-TAF: